TimeCST,TemperatureF,Dew PointF,Humidity,Sea Level PressureIn,VisibilityMPH,Wind Direction,Wind SpeedMPH,Gust SpeedMPH,PrecipitationIn,Events,Conditions,WindDirDegrees,DateUTC
12:15 AM,-0.4,-7.6,72,29.87,10.0,WSW,9.2,-,N/A,,Clear,250,2014-01-29 06:15:00
12:35 AM,-0.4,-7.6,72,29.86,10.0,SW,9.2,-,N/A,,Clear,230,2014-01-29 06:35:00
12:55 AM,-0.4,-7.6,72,29.86,10.0,SW,8.1,-,N/A,,Clear,220,2014-01-29 06:55:00
1:15 AM,-2.2,-9.4,71,29.85,10.0,SW,6.9,-,N/A,,Clear,230,2014-01-29 07:15:00
1:35 AM,-2.2,-9.4,71,29.84,10.0,SW,8.1,-,N/A,,Clear,230,2014-01-29 07:35:00
1:55 AM,-2.2,-9.4,71,29.83,10.0,SW,10.4,-,N/A,,Clear,220,2014-01-29 07:55:00
2:15 AM,-0.4,-9.4,66,29.82,10.0,SW,11.5,-,N/A,,Clear,230,2014-01-29 08:15:00
2:35 AM,-0.4,-9.4,66,29.81,10.0,SSW,9.2,-,N/A,,Clear,200,2014-01-29 08:35:00
2:55 AM,-7.6,-13.0,77,29.79,10.0,South,10.4,-,N/A,,Clear,180,2014-01-29 08:55:00
3:15 AM,-7.6,-13.0,77,29.78,10.0,SSE,8.1,-,N/A,,Clear,160,2014-01-29 09:15:00
3:35 AM,-7.6,-13.0,77,29.76,10.0,SSE,11.5,-,N/A,,Clear,160,2014-01-29 09:35:00
3:55 AM,-7.6,-13.0,77,29.75,10.0,SSE,13.8,-,N/A,,Clear,150,2014-01-29 09:55:00
4:15 AM,-5.8,-13.0,71,29.73,10.0,SSE,15.0,-,N/A,,Clear,150,2014-01-29 10:15:00
4:35 AM,-7.6,-13.0,77,29.72,10.0,SSE,11.5,-,N/A,,Clear,160,2014-01-29 10:35:00
4:55 AM,-7.6,-13.0,77,29.70,10.0,SSE,12.7,-,N/A,,Clear,160,2014-01-29 10:55:00
5:15 AM,-5.8,-11.2,77,29.68,10.0,South,13.8,-,N/A,,Clear,170,2014-01-29 11:15:00
5:35 AM,-4.0,-11.2,71,29.67,10.0,South,16.1,-,N/A,,Clear,170,2014-01-29 11:35:00
5:55 AM,-5.8,-11.2,77,29.65,10.0,South,17.3,-,N/A,,Clear,170,2014-01-29 11:55:00
6:15 AM,-4.0,-11.2,71,29.62,10.0,SSE,16.1,-,N/A,,Clear,160,2014-01-29 12:15:00
6:35 AM,-4.0,-9.4,78,29.62,10.0,SSE,15.0,-,N/A,,Clear,160,2014-01-29 12:35:00
6:55 AM,-2.2,-9.4,71,29.60,10.0,SSE,18.4,-,N/A,,Mostly Cloudy,160,2014-01-29 12:55:00
7:15 AM,-2.2,-9.4,71,29.58,10.0,SSE,21.9,-,N/A,,Mostly Cloudy,160,2014-01-29 13:15:00
7:55 AM,-2.2,-7.6,78,29.54,10.0,South,19.6,-,N/A,,Partly Cloudy,170,2014-01-29 13:55:00
8:15 AM,-0.4,-7.6,72,29.54,10.0,South,19.6,-,N/A,,Partly Cloudy,170,2014-01-29 14:15:00
8:35 AM,-0.4,-7.6,72,29.53,10.0,South,19.6,-,N/A,,Clear,170,2014-01-29 14:35:00
8:55 AM,-0.4,-5.8,78,29.52,10.0,South,17.3,-,N/A,,Clear,180,2014-01-29 14:55:00
9:15 AM,-0.4,-4.0,85,29.50,10.0,South,17.3,20.7,N/A,,Clear,180,2014-01-29 15:15:00
9:35 AM,1.4,-4.0,78,29.49,10.0,South,17.3,-,N/A,,Partly Cloudy,180,2014-01-29 15:35:00
9:55 AM,3.2,-2.2,78,29.49,10.0,South,13.8,-,N/A,,Partly Cloudy,180,2014-01-29 15:55:00
10:15 AM,5.0,-0.4,78,29.47,10.0,South,16.1,-,N/A,,Partly Cloudy,180,2014-01-29 16:15:00
10:35 AM,6.8,-0.4,72,29.46,10.0,South,11.5,-,N/A,,Partly Cloudy,180,2014-01-29 16:35:00
10:55 AM,8.6,1.4,73,29.46,10.0,SSE,8.1,-,N/A,,Partly Cloudy,160,2014-01-29 16:55:00
11:15 AM,10.4,5.0,79,29.45,10.0,South,9.2,-,N/A,,Clear,190,2014-01-29 17:15:00
11:35 AM,15.8,6.8,68,29.45,10.0,SW,11.5,-,N/A,,Clear,220,2014-01-29 17:35:00
11:55 AM,17.6,8.6,68,29.44,10.0,WSW,13.8,-,N/A,,Clear,250,2014-01-29 17:55:00
12:15 PM,19.4,10.4,68,29.44,10.0,West,17.3,21.9,N/A,,Mostly Cloudy,280,2014-01-29 18:15:00
12:35 PM,19.4,10.4,68,29.45,10.0,WNW,21.9,27.6,N/A,,Overcast,300,2014-01-29 18:35:00
12:55 PM,19.4,8.6,63,29.44,10.0,WNW,19.6,27.6,N/A,,Mostly Cloudy,300,2014-01-29 18:55:00
1:15 PM,17.6,10.4,73,29.45,10.0,WNW,18.4,26.5,N/A,,Scattered Clouds,300,2014-01-29 19:15:00
1:35 PM,17.6,8.6,68,29.45,10.0,NW,23.0,28.8,N/A,,Scattered Clouds,310,2014-01-29 19:35:00
1:55 PM,17.6,8.6,68,29.46,10.0,NW,17.3,-,N/A,,Clear,310,2014-01-29 19:55:00
2:15 PM,17.6,8.6,68,29.46,10.0,NNW,15.0,-,N/A,,Partly Cloudy,330,2014-01-29 20:15:00
2:35 PM,15.8,8.6,73,29.47,10.0,NNW,15.0,18.4,N/A,,Partly Cloudy,330,2014-01-29 20:35:00
2:55 PM,15.8,8.6,73,29.48,10.0,NNW,9.2,-,N/A,,Clear,330,2014-01-29 20:55:00
3:15 PM,15.8,8.6,73,29.49,10.0,NW,12.7,-,N/A,,Clear,320,2014-01-29 21:15:00
3:35 PM,15.8,8.6,73,29.51,10.0,NW,12.7,-,N/A,,Clear,320,2014-01-29 21:35:00
3:55 PM,15.8,6.8,68,29.50,10.0,NNW,11.5,-,N/A,,Clear,330,2014-01-29 21:55:00
4:15 PM,15.8,6.8,68,29.52,10.0,West,6.9,-,N/A,,Clear,280,2014-01-29 22:15:00
4:35 PM,15.8,6.8,68,29.53,10.0,WNW,13.8,-,N/A,,Scattered Clouds,290,2014-01-29 22:35:00
4:55 PM,14.0,6.8,73,29.53,10.0,WNW,12.7,-,N/A,,Mostly Cloudy,300,2014-01-29 22:55:00
5:15 PM,14.0,6.8,73,29.53,10.0,WNW,12.7,-,N/A,,Partly Cloudy,300,2014-01-29 23:15:00
5:35 PM,12.2,6.8,79,29.54,10.0,WNW,11.5,-,N/A,,Clear,300,2014-01-29 23:35:00
5:55 PM,12.2,5.0,73,29.55,10.0,WNW,11.5,-,N/A,,Partly Cloudy,300,2014-01-29 23:55:00
6:15 PM,12.2,5.0,73,29.55,10.0,WNW,11.5,18.4,N/A,,Scattered Clouds,300,2014-01-30 00:15:00
6:35 PM,12.2,5.0,73,29.56,10.0,WNW,11.5,-,N/A,,Mostly Cloudy,300,2014-01-30 00:35:00
6:55 PM,12.2,5.0,73,29.57,10.0,WNW,9.2,-,N/A,,Overcast,300,2014-01-30 00:55:00
7:15 PM,12.2,5.0,73,29.56,10.0,NW,6.9,-,N/A,,Overcast,310,2014-01-30 01:15:00
7:35 PM,12.2,5.0,73,29.56,10.0,NW,5.8,-,N/A,,Overcast,310,2014-01-30 01:35:00
7:55 PM,12.2,6.8,79,29.57,10.0,NW,6.9,-,N/A,,Overcast,310,2014-01-30 01:55:00
8:15 PM,12.2,6.8,79,29.56,10.0,WNW,5.8,-,N/A,,Mostly Cloudy,300,2014-01-30 02:15:00
8:35 PM,10.4,6.8,85,29.57,10.0,West,4.6,-,N/A,,Mostly Cloudy,260,2014-01-30 02:35:00
8:55 PM,10.4,6.8,85,29.58,10.0,West,5.8,-,N/A,,Overcast,280,2014-01-30 02:55:00
9:15 PM,12.2,6.8,79,29.59,10.0,NW,11.5,-,N/A,,Overcast,310,2014-01-30 03:15:00
9:35 PM,12.2,5.0,73,29.59,10.0,NNW,9.2,-,N/A,,Mostly Cloudy,330,2014-01-30 03:35:00
9:55 PM,10.4,5.0,79,29.60,10.0,North,9.2,-,N/A,,Partly Cloudy,350,2014-01-30 03:55:00
10:15 PM,10.4,3.2,73,29.60,10.0,North,15.0,18.4,N/A,,Clear,350,2014-01-30 04:15:00
10:35 PM,8.6,1.4,73,29.61,10.0,North,15.0,21.9,N/A,,Partly Cloudy,350,2014-01-30 04:35:00
10:55 PM,6.8,-0.4,72,29.62,10.0,North,18.4,25.3,N/A,,Mostly Cloudy,10,2014-01-30 04:55:00
11:15 PM,3.2,-2.2,78,29.63,10.0,North,17.3,23.0,N/A,,Overcast,10,2014-01-30 05:15:00
11:35 PM,3.2,-4.0,72,29.65,10.0,North,15.0,-,N/A,,Overcast,10,2014-01-30 05:35:00
11:55 PM,1.4,-4.0,78,29.66,10.0,North,17.3,23.0,N/A,,Overcast,360,2014-01-30 05:55:00